Latrobe, PA

12:54 AM EDT on August 26, 2019 (GMT -0400)
Arnold Palmer Regional

Weather History for KLBE - May, 2019

Change the Weather History Date:

Tuesday, May 7, 2019

  Actual Average Record
Temperature  
Mean Temperature 62 °F -  
Max Temperature 77 °F 69 °F 87 °F (2000)
Min Temperature 48 °F 46 °F 32 °F (2006)
Degree Days  
Heating Degree Days 2    
Growing Degree Days 12 (Base 50)    
Moisture  
Dew Point 51 °F    
Average Humidity 75    
Maximum Humidity 100    
Minimum Humidity 34    
Precipitation  
Precipitation 0.00 in - - ()
Sea Level Pressure  
Sea Level Pressure 30.13 in    
Wind  
Wind Speed 2 mph (SW)    
Max Wind Speed 12 mph    
Max Gust Speed 17 mph    
Visibility 12 miles    
Events      
Averages and records for this station are not official NWS values.
T = Trace of Precipitation, MM = Missing Value Source: NWS Daily Summary

Daily Weather History Graph

Daily Weather History Graph

Search for Another Location

Airport or City:

Astronomy

May. 07, 2019 Rise Set
Actual Time 6:10 AM EDT 8:18 PM EDT
Civil Twilight 5:40 AM EDT 8:48 PM EDT
Nautical Twilight 5:03 AM EDT 9:25 PM EDT
Astronomical Twilight 4:23 AM EDT 10:06 PM EDT
Moon 8:14 AM EDT (5/7) 11:17 PM EDT (5/7)
Length of Visible Light 15h 08m
Length of Day
14h 08m
Waxing Crescent, 8% of the Moon is Illuminated
May 7
Waxing Crescent
May 11
First Quarter
May 18
Full
May 26
Last Quarter
Jun 3
New

Hourly Weather History & Observations

Time (EDT) Temp. Dew Point Humidity Pressure Visibility Wind Dir Wind Speed Gust Speed Precip Events Conditions
12:15 AM 53.6 °F 50.0 °F 88% 30.12 in 10.0 mi Calm Calm - N/A   Clear
12:35 AM 53.6 °F 51.8 °F 94% 30.12 in 10.0 mi Calm Calm - N/A   Clear
12:55 AM 53.6 °F 51.8 °F 94% 30.13 in 10.0 mi Calm Calm - N/A   Clear
1:35 AM 51.8 °F 50.0 °F 94% 30.12 in 10.0 mi Calm Calm - N/A   Clear
1:55 AM 51.8 °F 51.8 °F 100% 30.12 in 10.0 mi Calm Calm - N/A   Clear
2:15 AM 51.8 °F 50.0 °F 94% 30.12 in 10.0 mi Calm Calm - N/A   Clear
2:35 AM 50.0 °F 50.0 °F 100% 30.12 in 10.0 mi Calm Calm - N/A   Clear
3:15 AM 51.8 °F 51.8 °F 100% 30.11 in 10.0 mi Calm Calm - N/A   Clear
3:35 AM 51.8 °F 51.8 °F 100% 30.11 in 10.0 mi Calm Calm - N/A   Clear
3:55 AM 50.0 °F 50.0 °F 100% 30.10 in 10.0 mi South 3.5 mph - N/A   Clear
4:15 AM 50.0 °F 50.0 °F 100% 30.10 in 10.0 mi Calm Calm - N/A   Clear
4:35 AM - - N/A% 30.10 in 10.0 mi Calm Calm - N/A   Clear
4:55 AM 50.0 °F 50.0 °F 100% 30.10 in 10.0 mi Calm Calm - N/A   Clear
5:15 AM 48.2 °F 48.2 °F 100% 30.11 in 10.0 mi Calm Calm - N/A   Clear
5:35 AM 48.2 °F 48.2 °F 100% 30.11 in 10.0 mi Calm Calm - N/A   Clear
5:55 AM 48.2 °F 48.2 °F 100% 30.11 in 10.0 mi Calm Calm - N/A   Clear
6:53 AM 48.2 °F 48.2 °F 100% 30.13 in 10.0 mi Calm Calm - N/A   Clear
7:53 AM 55.4 °F 51.8 °F 88% 30.15 in 10.0 mi Calm Calm - N/A   Clear
8:53 AM 62.6 °F 55.4 °F 77% 30.15 in 10.0 mi Calm Calm - N/A   Clear
9:53 AM 68.0 °F 53.6 °F 60% 30.16 in 10.0 mi WSW 8.1 mph - N/A   Clear
10:53 AM 69.8 °F 51.8 °F 53% 30.16 in 10.0 mi SW 11.5 mph - N/A   Clear
11:53 AM 71.6 °F 53.6 °F 53% 30.17 in 10.0 mi SSW 6.9 mph - N/A   Clear
12:53 PM 73.4 °F 51.8 °F 47% 30.16 in 10.0 mi SSW 8.1 mph - N/A   Clear
1:53 PM 75.2 °F 51.8 °F 44% 30.14 in 10.0 mi SSW 9.2 mph 17.3 mph N/A   Clear
2:47 PM 75.2 °F 50.0 °F 41% 30.13 in 20.0 mi SSW 9.2 mph - N/A   Scattered Clouds
3:47 PM 77.0 °F 51.8 °F 41% 30.11 in 20.0 mi WSW 9.2 mph - N/A   Mostly Cloudy
4:47 PM 77.0 °F 50.0 °F 39% 30.10 in 20.0 mi SW 6.9 mph - N/A   Scattered Clouds
5:47 PM 75.2 °F 50.0 °F 41% 30.10 in 20.0 mi WSW 9.2 mph - N/A   Scattered Clouds
6:47 PM 75.2 °F 50.0 °F 41% 30.10 in 20.0 mi West 5.8 mph - N/A   Unknown
7:47 PM 73.4 °F 50.0 °F 44% 30.10 in 20.0 mi Variable 5.8 mph - N/A   Scattered Clouds
8:47 PM 66.2 °F 53.6 °F 64% 30.13 in 20.0 mi Variable 5.8 mph - N/A   Scattered Clouds
9:47 PM 64.4 °F 35.6 °F 34% 30.14 in 20.0 mi Variable 5.8 mph - N/A   Clear
10:15 PM 64.4 °F 53.6 °F 68% 30.14 in 10.0 mi North 4.6 mph - N/A   Clear
10:35 PM 64.4 °F 53.6 °F 68% 30.15 in 10.0 mi North 4.6 mph - N/A   Partly Cloudy
10:55 PM 64.4 °F 53.6 °F 68% 30.15 in 10.0 mi North 3.5 mph - N/A   Mostly Cloudy
11:15 PM 62.6 °F 53.6 °F 72% 30.15 in 10.0 mi Calm Calm - N/A   Scattered Clouds
11:35 PM 60.8 °F 53.6 °F 77% 30.15 in 10.0 mi Calm Calm - N/A   Clear
11:55 PM 60.8 °F 53.6 °F 77% 30.16 in 10.0 mi Calm Calm - N/A   Scattered Clouds